QPF
0.00 0.00 0.00 0.00 0.00 0.00 0.00 0.00 0.00 0.00 0.00 0.00 0.00 0.00 0.00 0.00 0.00 0.00 0.00 0.00 0.00 0.00 0.00 0.00 0.00 0.00 0.00 0.00 0.00 0.00 0.00 0.00 0.01 0.00 0.00 0.00 0.00 0.00 0.00 0.00 0.00 0.00 0.00
0.00 0.00 0.00 0.00 0.00 0.00 0.00 0.00 0.00 0.00 0.00 0.00 0.00 0.00 0.00 0.00 0.00 0.00 0.00 0.00 0.00 0.00 0.00 0.00 0.00 0.00 0.00 0.00 0.00 0.00 0.00 0.00 0.01 0.01 0.00 0.00 0.00 0.00 0.00 0.00 0.00 0.00 0.00
0.00 0.00 0.00 0.00 0.00 0.00 0.00 0.00 0.00 0.00 0.00 0.00 0.00 0.00 0.00 0.00 0.00 0.00 0.00 0.00 0.00 0.00 0.00 0.00 0.00 0.00 0.00 0.00 0.00 0.00 0.00 0.01 0.01 0.01 0.00 0.00 0.00 0.00 0.00 0.00 0.00 0.00 0.00
0.00 0.00 0.00 0.00 0.00 0.00 0.00 0.00 0.00 0.00 0.00 0.00 0.00 0.00 0.00 0.00 0.00 0.00 0.00 0.00 0.00 0.00 0.00 0.00 0.00 0.00 0.00 0.00 0.00 0.00 0.00 0.01 0.01 0.01 0.01 0.01 0.00 0.00 0.00 0.00 0.00 0.00 0.00
0.00 0.00 0.00 0.00 0.00 0.00 0.00 0.00 0.00 0.00 0.00 0.00 0.00 0.00 0.00 0.00 0.00 0.00 0.00 0.00 0.00 0.00 0.00 0.00 0.00 0.00 0.00 0.00 0.00 0.00 0.00 0.01 0.01 0.01 0.01 0.01 0.00 0.00 0.00 0.00 0.00 0.01 0.01
0.00 0.00 0.00 0.00 0.00 0.00 0.00 0.00 0.00 0.00 0.00 0.00 0.00 0.00 0.00 0.00 0.00 0.00 0.00 0.00 0.00 0.00 0.00 0.00 0.00 0.00 0.00 0.00 0.00 0.00 0.01 0.02 0.01 0.02 0.01 0.01 0.00 0.00 0.00 0.02 0.05 0.06 0.03
0.00 0.00 0.00 0.00 0.00 0.00 0.00 0.00 0.00 0.00 0.00 0.00 0.00 0.00 0.00 0.00 0.00 0.00 0.00 0.00 0.00 0.00 0.00 0.00 0.00 0.00 0.00 0.00 0.00 0.01 0.02 0.02 0.01 0.01 0.01 0.02 0.03 0.03 0.09 0.17 0.08 0.02 0.00
0.00 0.00 0.00 0.00 0.00 0.00 0.00 0.00 0.00 0.00 0.00 0.00 0.00 0.00 0.00 0.00 0.00 0.00 0.00 0.00 0.00 0.00 0.00 0.00 0.00 0.00 0.00 0.00 0.01 0.04 0.01 0.00 0.00 0.00 0.01 0.03 0.07 0.11 0.10 0.04 0.01 0.01 0.01
0.00 0.00 0.00 0.00 0.00 0.00 0.00 0.00 0.00 0.00 0.00 0.00 0.00 0.00 0.00 0.00 0.00 0.00 0.00 0.00 0.00 0.00 0.00 0.00 0.01 0.01 0.00 0.02 0.05 0.01 0.00 0.00 0.00 0.00 0.00 0.01 0.01 0.00 0.00 0.02 0.04 0.05 0.03
0.00 0.00 0.00 0.00 0.00 0.00 0.00 0.00 0.00 0.00 0.00 0.00 0.00 0.00 0.00 0.00 0.00 0.00 0.00 0.00 0.00 0.00 0.00 0.01 0.00 0.00 0.02 0.05 0.00 0.00 0.00 0.00 0.00 0.00 0.00 0.00 0.00 0.00 0.00 0.02 0.10 0.14 0.07
0.00 0.00 0.00 0.00 0.00 0.00 0.00 0.00 0.00 0.00 0.00 0.00 0.00 0.00 0.00 0.00 0.00 0.00 0.00 0.00 0.00 0.01 0.02 0.00 0.00 0.02 0.06 0.00 0.00 0.00 0.00 0.00 0.00 0.00 0.00 0.00 0.00 0.00 0.01 0.03 0.08 0.15 0.12
0.00 0.00 0.00 0.00 0.00 0.00 0.00 0.00 0.00 0.00 0.00 0.00 0.00 0.00 0.00 0.00 0.00 0.00 0.00 0.00 0.01 0.01 0.00 0.00 0.03 0.06 0.00 0.00 0.00 0.00 0.00 0.00 0.00 0.00 0.00 0.00 0.00 0.00 0.00 0.01 0.03 0.04 0.06
0.00 0.00 0.00 0.00 0.00 0.00 0.00 0.00 0.00 0.00 0.00 0.00 0.00 0.00 0.00 0.00 0.00 0.00 0.00 0.01 0.01 0.01 0.00 0.03 0.04 0.00 0.00 0.00 0.00 0.00 0.00 0.00 0.00 0.01 0.01 0.00 0.00 0.00 0.00 0.00 0.01 0.00 0.01
0.00 0.00 0.00 0.00 0.00 0.00 0.00 0.00 0.00 0.00 0.00 0.00 0.00 0.00 0.00 0.00 0.00 0.00 0.00 0.01 0.00 0.01 0.02 0.03 0.00 0.00 0.00 0.00 0.00 0.00 0.00 0.00 0.00 0.01 0.02 0.01 0.00 0.00 0.00 0.01 0.02 0.01 0.02
0.00 0.00 0.00 0.00 0.00 0.00 0.00 0.00 0.00 0.00 0.00 0.00 0.00 0.00 0.00 0.00 0.00 0.01 0.01 0.00 0.01 0.01 0.00 0.00 0.00 0.00 0.00 0.00 0.00 0.00 0.00 0.00 0.00 0.00 0.01 0.01 0.01 0.00 0.01 0.00 0.02 0.03 0.04
0.00 0.00 0.00 0.00 0.00 0.00 0.00 0.00 0.00 0.00 0.00 0.00 0.00 0.00 0.00 0.00 0.01 0.01 0.00 0.02 0.01 0.00 0.00 0.00 0.01 0.00 0.00 0.00 0.00 0.00 0.00 0.00 0.00 0.01 0.02 0.01 0.01 0.01 0.02 0.02 0.03 0.05 0.05
0.00 0.00 0.00 0.00 0.00 0.00 0.00 0.00 0.00 0.00 0.00 0.00 0.00 0.00 0.00 0.00 0.00 0.00 0.01 0.01 0.00 0.00 0.00 0.01 0.01 0.00 0.00 0.00 0.00 0.00 0.00 0.00 0.01 0.02 0.03 0.03 0.03 0.02 0.03 0.03 0.04 0.06 0.06
0.00 0.00 0.00 0.00 0.00 0.00 0.00 0.00 0.00 0.00 0.00 0.00 0.00 0.00 0.00 0.00 0.00 0.01 0.01 0.00 0.00 0.00 0.00 0.01 0.00 0.00 0.00 0.00 0.00 0.00 0.01 0.01 0.02 0.03 0.05 0.05 0.04 0.07 0.06 0.06 0.06 0.07 0.06
0.00 0.00 0.00 0.00 0.00 0.00 0.00 0.00 0.00 0.00 0.00 0.00 0.00 0.00 0.00 0.00 0.01 0.01 0.00 0.00 0.00 0.00 0.00 0.00 0.00 0.00 0.00 0.00 0.00 0.00 0.01 0.03 0.05 0.06 0.05 0.05 0.06 0.08 0.07 0.06 0.05 0.03 0.01
0.00 0.00 0.00 0.00 0.00 0.00 0.00 0.00 0.00 0.00 0.00 0.00 0.00 0.00 0.00 0.01 0.02 0.00 0.00 0.00 0.00 0.00 0.00 0.00 0.00 0.00 0.00 0.00 0.01 0.02 0.03 0.04 0.05 0.05 0.07 0.06 0.08 0.06 0.04 0.02 0.01 0.00 0.00
0.00 0.00 0.00 0.00 0.00 0.00 0.00 0.00 0.00 0.00 0.00 0.00 0.00 0.00 0.00 0.01 0.00 0.00 0.00 0.00 0.00 0.00 0.01 0.01 0.01 0.00 0.00 0.00 0.01 0.03 0.05 0.05 0.07 0.07 0.06 0.04 0.01 0.00 0.00 0.00 0.00 0.00 0.00
0.00 0.00 0.00 0.00 0.00 0.00 0.00 0.00 0.00 0.00 0.00 0.00 0.00 0.00 0.00 0.00 0.00 0.00 0.00 0.00 0.00 0.00 0.00 0.01 0.01 0.00 0.00 0.01 0.05 0.06 0.05 0.06 0.06 0.05 0.02 0.01 0.00 0.00 0.00 0.00 0.00 0.00 0.00
0.00 0.00 0.00 0.00 0.00 0.00 0.00 0.00 0.00 0.00 0.00 0.00 0.00 0.00 0.00 0.00 0.00 0.00 0.00 0.00 0.00 0.00 0.00 0.00 0.00 0.00 0.00 0.02 0.06 0.08 0.08 0.06 0.04 0.03 0.02 0.00 0.00 0.00 0.00 0.00 0.00 0.00 0.00
0.00 0.00 0.00 0.00 0.00 0.00 0.00 0.00 0.00 0.00 0.00 0.00 0.00 0.00 0.00 0.00 0.00 0.00 0.00 0.00 0.00 0.00 0.00 0.00 0.00 0.00 0.02 0.05 0.06 0.06 0.06 0.05 0.04 0.02 0.00 0.00 0.00 0.00 0.00 0.00 0.00 0.00 0.00
0.00 0.00 0.00 0.00 0.00 0.00 0.00 0.00 0.00 0.00 0.00 0.00 0.00 0.00 0.00 0.00 0.00 0.00 0.00 0.00 0.00 0.00 0.00 0.00 0.00 0.01 0.05 0.06 0.05 0.04 0.03 0.04 0.01 0.00 0.00 0.00 0.00 0.01 0.01 0.01 0.01 0.01 0.01
0.00 0.00 0.00 0.00 0.00 0.00 0.00 0.00 0.00 0.00 0.00 0.00 0.00 0.00 0.00 0.00 0.00 0.00 0.00 0.00 0.00 0.00 0.00 0.00 0.00 0.03 0.05 0.04 0.03 0.02 0.02 0.00 0.00 0.00 0.00 0.00 0.01 0.00 0.01 0.01 0.02 0.01 0.01
MSLP
1018.60 1018.71 1018.73 1018.79 1018.72 1018.55 1018.35 1018.22 1018.08 1017.92 1017.72 1017.36 1016.83 1016.23 1015.65 1015.10 1014.53 1013.97 1013.37 1012.63 1012.18 1011.57 1011.00 1010.34 1009.78 1009.20 1008.58 1007.79 1007.02 1006.44 1005.90 1005.44 1004.09 1001.45 1000.95 1000.07 999.79 999.30 998.46 997.97 997.33 996.21 994.95
1018.92 1018.98 1019.00 1018.89 1018.70 1018.56 1018.59 1018.53 1018.34 1018.03 1017.66 1017.29 1016.70 1016.14 1015.64 1015.12 1014.55 1013.91 1013.21 1012.65 1011.99 1011.24 1010.64 1010.07 1009.46 1008.84 1008.16 1007.54 1006.79 1006.04 1005.58 1004.94 1003.96 1002.02 1000.81 1000.00 999.63 998.88 997.89 997.14 996.47 995.47 994.44
1019.06 1019.01 1018.93 1018.85 1018.78 1018.84 1018.85 1018.65 1018.28 1017.85 1017.44 1017.00 1016.59 1016.08 1015.53 1014.97 1014.35 1013.74 1013.10 1012.38 1011.75 1011.07 1010.32 1009.53 1008.86 1008.42 1007.70 1007.16 1006.49 1005.62 1004.85 1004.24 1003.48 1002.30 1000.59 999.98 998.97 998.19 997.16 996.45 995.55 994.53 993.78
1018.94 1018.86 1018.90 1018.82 1019.03 1019.10 1018.83 1018.44 1018.16 1017.79 1017.35 1016.93 1016.45 1015.98 1015.48 1014.86 1014.25 1013.44 1012.73 1012.04 1011.37 1010.58 1009.93 1009.32 1008.69 1008.15 1007.42 1006.62 1005.76 1004.96 1004.24 1003.47 1002.50 1001.53 1000.34 999.29 998.39 997.44 996.81 995.59 994.19 993.86 992.66
1018.91 1019.11 1019.22 1019.34 1019.24 1018.92 1018.59 1018.41 1018.06 1017.61 1017.27 1016.86 1016.31 1015.75 1015.26 1014.69 1013.83 1013.24 1012.49 1011.60 1010.78 1010.00 1009.43 1008.91 1008.30 1007.76 1007.09 1006.25 1005.26 1004.39 1003.64 1002.68 1001.70 1000.64 999.65 998.80 997.73 996.81 995.86 995.05 994.14 993.16 991.90
1019.27 1019.42 1019.60 1019.43 1019.18 1018.85 1018.50 1018.18 1017.78 1017.42 1017.00 1016.51 1016.00 1015.51 1014.98 1014.39 1013.80 1013.02 1012.23 1011.20 1010.41 1009.67 1008.90 1008.25 1007.69 1007.05 1006.31 1005.52 1004.89 1003.94 1002.98 1002.20 1001.37 1000.53 999.43 998.41 997.33 996.44 995.32 994.56 993.50 992.64 991.31
1019.49 1019.62 1019.49 1019.45 1019.18 1018.65 1018.33 1017.92 1017.55 1017.15 1016.70 1016.27 1015.80 1015.29 1014.67 1014.13 1013.46 1012.64 1011.81 1010.91 1010.06 1009.36 1008.64 1007.82 1006.93 1006.36 1005.71 1004.99 1003.94 1002.86 1002.50 1001.72 1000.96 1000.19 999.08 998.10 997.06 995.93 995.27 993.93 992.85 992.29 991.18
1019.57 1019.44 1019.56 1019.43 1018.90 1018.52 1018.14 1017.74 1017.33 1016.95 1016.56 1015.96 1015.54 1015.05 1014.34 1013.77 1013.21 1012.26 1011.36 1010.38 1009.58 1008.87 1008.25 1007.41 1006.50 1005.67 1005.09 1004.04 1002.88 1002.14 1001.34 1000.30 999.75 999.21 998.50 997.43 996.36 995.20 994.25 993.25 992.29 991.40 990.24
1019.48 1019.63 1019.50 1019.19 1018.86 1018.44 1018.00 1017.60 1017.19 1016.67 1016.06 1015.61 1015.31 1014.73 1014.15 1013.48 1012.77 1011.99 1010.89 1009.81 1008.88 1008.20 1007.56 1006.82 1006.06 1005.06 1004.27 1003.27 1002.59 1001.49 1000.42 999.41 998.94 998.33 997.25 996.18 995.46 994.21 993.32 992.43 991.44 990.68 989.16
1019.66 1019.60 1019.38 1019.17 1018.86 1018.42 1017.96 1017.47 1016.99 1016.45 1015.91 1015.39 1014.81 1014.56 1013.99 1013.08 1012.39 1011.51 1010.49 1009.53 1008.48 1007.67 1006.97 1006.16 1005.41 1004.46 1003.43 1003.04 1002.10 1001.22 999.90 998.92 997.89 996.67 995.98 995.39 994.56 993.53 992.54 991.83 991.03 990.22 989.02
1019.59 1019.42 1019.30 1019.08 1018.70 1018.15 1017.66 1017.09 1016.57 1016.11 1015.73 1015.13 1014.47 1013.94 1013.30 1012.63 1011.76 1010.96 1010.13 1009.15 1008.36 1007.28 1006.31 1005.22 1004.49 1003.68 1003.10 1002.40 1001.60 1000.85 999.78 998.32 997.47 996.88 995.75 994.71 993.68 992.70 991.81 991.21 990.71 989.88 988.67
1019.46 1019.49 1019.15 1018.69 1018.36 1017.78 1017.25 1016.71 1016.39 1016.00 1015.47 1014.81 1013.95 1013.20 1012.64 1011.90 1011.31 1010.59 1009.68 1008.81 1007.92 1006.93 1005.76 1004.76 1003.90 1003.04 1002.14 1001.66 1001.10 1000.21 999.16 998.29 997.72 996.72 995.51 994.25 993.14 992.24 991.44 990.72 989.87 988.94 988.20
1019.42 1019.06 1018.76 1018.45 1017.97 1017.40 1016.98 1016.57 1016.16 1015.72 1015.21 1014.33 1013.54 1012.67 1011.77 1011.23 1010.72 1010.07 1009.22 1008.37 1007.32 1006.19 1005.44 1004.54 1003.43 1002.45 1001.62 1001.28 1000.71 999.76 998.95 998.26 997.41 996.28 995.02 993.82 992.96 992.00 990.97 989.80 988.66 987.71 986.98
1019.04 1018.85 1018.42 1017.88 1017.28 1017.02 1016.98 1016.59 1016.05 1015.49 1014.79 1014.01 1013.18 1012.29 1011.60 1010.78 1010.12 1009.38 1008.48 1007.51 1006.57 1005.85 1005.05 1003.86 1003.10 1002.18 1001.57 1001.13 1000.17 999.39 998.68 997.94 997.02 995.89 994.71 993.46 992.38 991.24 990.09 989.03 987.67 986.89 986.17
1018.76 1018.33 1017.82 1017.44 1017.21 1016.94 1016.70 1016.36 1015.76 1015.15 1014.57 1013.51 1012.84 1012.18 1011.29 1010.39 1009.66 1008.76 1007.85 1006.77 1006.02 1005.39 1004.32 1003.65 1002.85 1002.02 1001.46 1000.58 999.82 999.02 998.14 997.29 996.32 995.42 994.21 992.89 991.69 990.59 989.40 988.29 987.18 986.39 985.90
1018.29 1017.78 1017.50 1017.24 1016.97 1016.68 1016.26 1015.57 1015.33 1014.65 1013.95 1013.31 1012.65 1011.90 1010.97 1010.22 1009.26 1008.33 1007.44 1006.62 1005.82 1005.12 1004.33 1003.79 1003.00 1002.21 1001.42 1000.51 999.55 998.47 997.69 996.77 995.91 994.95 993.68 992.51 991.25 990.06 988.81 987.56 986.82 986.16 985.90
1017.92 1017.57 1017.32 1017.05 1016.77 1016.33 1015.76 1015.16 1014.11 1013.53 1013.36 1012.80 1012.17 1011.35 1010.63 1009.65 1008.81 1007.95 1007.01 1006.28 1005.65 1005.12 1004.67 1004.01 1003.13 1002.30 1001.39 1000.49 999.60 998.56 997.36 996.42 995.58 994.40 993.22 991.97 990.84 989.61 988.35 987.31 986.61 986.27 986.35
1017.72 1017.51 1017.17 1016.78 1016.33 1015.82 1015.37 1014.82 1014.14 1013.25 1012.32 1011.81 1011.49 1010.89 1009.99 1009.29 1008.49 1007.46 1006.63 1006.05 1005.52 1005.14 1004.75 1003.95 1003.09 1002.23 1001.28 1000.32 999.35 998.25 997.08 996.03 995.08 993.92 992.85 991.77 990.55 989.33 988.15 987.31 986.92 986.79 986.76
1017.62 1017.17 1016.76 1016.34 1015.94 1015.43 1014.89 1014.44 1013.82 1013.08 1012.33 1011.51 1010.66 1010.08 1009.64 1008.93 1007.98 1007.23 1006.86 1006.32 1005.65 1004.97 1004.39 1003.72 1002.91 1002.02 1001.06 1000.10 999.09 997.94 996.92 995.75 994.61 993.66 992.55 991.50 990.39 989.39 988.61 988.06 987.62 987.30 987.28
1017.01 1016.69 1016.36 1015.93 1015.49 1014.95 1014.51 1013.92 1013.36 1012.72 1011.99 1011.27 1010.56 1009.88 1009.15 1008.32 1007.66 1007.08 1006.66 1006.18 1005.56 1004.92 1004.25 1003.46 1002.60 1001.70 1000.73 999.79 998.68 997.62 996.48 995.38 994.36 993.37 992.35 991.35 990.33 989.73 989.16 988.70 988.37 988.08 987.98
1016.63 1016.37 1016.02 1015.61 1015.17 1014.56 1014.07 1013.52 1012.96 1012.30 1011.74 1011.13 1010.43 1009.86 1009.05 1008.21 1007.65 1007.11 1006.52 1005.97 1005.42 1004.78 1004.04 1003.22 1002.28 1001.30 1000.32 999.37 998.33 997.29 996.27 995.17 994.16 993.23 992.36 991.46 990.65 990.04 989.61 989.21 988.88 988.59 988.35
1016.20 1015.96 1015.62 1015.20 1014.70 1014.20 1013.71 1013.03 1012.61 1012.09 1011.49 1010.98 1010.21 1009.63 1008.87 1008.27 1007.61 1007.00 1006.39 1005.82 1005.21 1004.60 1003.86 1002.97 1001.90 1000.95 1000.05 999.06 998.00 997.05 995.99 994.89 993.89 993.02 992.18 991.37 990.86 990.32 989.90 989.52 989.20 988.92 988.63
1015.66 1015.43 1015.13 1014.74 1014.29 1013.74 1013.27 1012.72 1012.27 1011.83 1011.27 1010.74 1010.12 1009.35 1008.65 1008.03 1007.43 1006.81 1006.22 1005.56 1004.90 1004.15 1003.33 1002.50 1001.56 1000.49 999.52 998.66 997.76 996.82 995.75 994.59 993.65 992.85 992.06 991.51 990.96 990.46 990.19 989.86 989.57 989.19 988.84
1015.13 1014.97 1014.68 1014.25 1013.88 1013.31 1012.88 1012.41 1011.93 1011.58 1011.10 1010.51 1009.89 1009.19 1008.51 1007.84 1007.20 1006.62 1006.05 1005.31 1004.56 1003.68 1002.86 1002.09 1001.21 1000.15 999.12 998.09 997.13 996.21 995.10 994.05 993.09 992.60 992.31 991.74 991.20 990.78 990.39 990.03 989.74 989.44 989.14
1014.75 1014.53 1014.27 1013.90 1013.48 1013.01 1012.56 1012.16 1011.74 1011.36 1010.88 1010.33 1009.56 1008.89 1008.18 1007.65 1007.08 1006.42 1005.69 1004.99 1004.20 1003.36 1002.52 1001.75 1000.74 999.73 998.71 997.68 996.63 995.52 994.31 992.98 992.86 992.62 992.29 991.92 991.48 991.08 990.67 990.29 990.01 989.59 989.24
1014.42 1014.20 1013.89 1013.53 1013.14 1012.74 1012.32 1011.92 1011.55 1011.06 1010.46 1009.78 1009.14 1008.55 1008.01 1007.46 1006.76 1006.05 1005.42 1004.72 1004.02 1003.22 1002.40 1001.33 1000.24 999.29 998.28 997.18 996.15 995.01 993.81 993.37 993.11 992.73 992.40 992.02 991.60 991.06 990.68 990.40 989.99 989.66 989.45
Thickness
5572 5567 5563 5559 5554 5549 5544 5538 5531 5524 5517 5510 5505 5500 5495 5489 5483 5477 5469 5463 5454 5445 5433 5423 5412 5401 5394 5390 5387 5382 5377 5366 5360 5404 5404 5412 5412 5411 5420 5422 5425 5436 5448
5561 5556 5552 5547 5542 5536 5529 5521 5514 5508 5501 5495 5489 5483 5476 5468 5460 5454 5448 5440 5430 5420 5409 5398 5389 5380 5374 5369 5365 5362 5354 5352 5345 5356 5379 5388 5387 5392 5400 5407 5412 5420 5430
5550 5546 5541 5535 5529 5521 5513 5506 5500 5494 5488 5480 5472 5465 5457 5448 5441 5432 5424 5414 5402 5392 5382 5374 5366 5356 5352 5344 5340 5338 5336 5332 5330 5328 5346 5358 5365 5371 5378 5386 5393 5402 5411
5541 5536 5529 5523 5514 5506 5499 5494 5487 5479 5472 5463 5454 5445 5435 5426 5415 5408 5400 5392 5382 5373 5362 5351 5341 5330 5323 5319 5316 5312 5309 5307 5310 5311 5318 5329 5339 5351 5350 5361 5375 5379 5390
5530 5521 5513 5505 5498 5492 5486 5479 5471 5463 5454 5444 5436 5426 5413 5401 5394 5385 5377 5370 5363 5355 5344 5331 5320 5310 5301 5295 5291 5292 5286 5286 5286 5287 5292 5295 5309 5318 5326 5334 5340 5351 5366
5514 5506 5497 5490 5484 5478 5473 5464 5457 5447 5438 5428 5417 5407 5394 5382 5372 5364 5355 5352 5345 5333 5323 5315 5304 5295 5289 5285 5278 5275 5274 5267 5263 5257 5264 5268 5279 5285 5297 5304 5317 5324 5335
5500 5490 5484 5475 5469 5464 5456 5450 5441 5432 5422 5410 5399 5387 5376 5365 5356 5348 5341 5334 5325 5312 5301 5296 5293 5285 5278 5273 5273 5272 5265 5259 5249 5241 5244 5248 5254 5265 5269 5282 5294 5304 5312
5484 5477 5468 5460 5455 5448 5441 5434 5425 5415 5405 5394 5380 5367 5360 5349 5338 5331 5324 5319 5309 5298 5287 5280 5277 5275 5267 5263 5265 5261 5260 5257 5250 5245 5239 5241 5246 5255 5261 5271 5282 5293 5304
5471 5460 5453 5447 5440 5433 5426 5418 5409 5401 5389 5375 5361 5350 5340 5334 5323 5314 5307 5303 5296 5287 5279 5271 5264 5263 5258 5255 5250 5253 5255 5254 5249 5242 5242 5243 5243 5253 5258 5267 5278 5285 5303
5454 5446 5439 5432 5423 5417 5409 5401 5392 5379 5370 5359 5348 5331 5322 5318 5309 5301 5292 5284 5282 5277 5271 5264 5257 5253 5251 5244 5243 5241 5245 5247 5248 5251 5247 5242 5243 5251 5260 5265 5272 5281 5295
5440 5433 5425 5416 5409 5402 5394 5383 5374 5363 5350 5341 5334 5324 5315 5305 5299 5290 5281 5271 5263 5263 5260 5259 5253 5247 5243 5240 5237 5232 5233 5240 5241 5236 5239 5242 5247 5254 5261 5266 5270 5279 5292
5427 5418 5411 5403 5394 5387 5378 5368 5355 5343 5333 5326 5322 5318 5307 5299 5288 5278 5268 5260 5252 5248 5250 5250 5246 5243 5242 5237 5232 5229 5230 5230 5227 5228 5233 5241 5249 5255 5262 5268 5276 5284 5292
5413 5406 5397 5388 5380 5370 5359 5350 5340 5326 5317 5313 5308 5306 5303 5291 5279 5266 5256 5250 5247 5244 5241 5239 5239 5239 5237 5231 5226 5224 5224 5222 5222 5226 5234 5243 5250 5257 5265 5275 5284 5292 5298
5402 5393 5385 5376 5369 5356 5342 5329 5319 5311 5304 5298 5295 5292 5286 5279 5268 5258 5251 5247 5243 5237 5234 5235 5231 5230 5227 5222 5222 5221 5219 5220 5223 5229 5238 5248 5255 5263 5272 5280 5291 5297 5304
5389 5381 5373 5363 5351 5341 5328 5314 5306 5297 5289 5287 5281 5274 5269 5265 5257 5248 5241 5241 5236 5229 5229 5226 5224 5223 5221 5220 5220 5219 5222 5226 5231 5236 5243 5253 5261 5267 5275 5284 5294 5301 5306
5377 5370 5359 5350 5337 5325 5315 5309 5295 5289 5282 5274 5267 5261 5258 5250 5243 5237 5234 5231 5228 5223 5221 5215 5214 5214 5214 5216 5219 5223 5228 5232 5236 5240 5247 5253 5261 5269 5278 5290 5297 5304 5307
5362 5354 5344 5332 5320 5309 5300 5293 5295 5291 5277 5268 5260 5255 5248 5243 5235 5230 5228 5226 5221 5215 5209 5206 5207 5208 5210 5213 5218 5225 5231 5236 5237 5242 5247 5256 5263 5273 5285 5296 5302 5305 5303
5346 5335 5326 5313 5303 5295 5287 5282 5278 5276 5276 5270 5258 5248 5242 5233 5226 5225 5224 5221 5216 5209 5204 5203 5204 5206 5210 5216 5222 5228 5234 5238 5240 5245 5251 5259 5269 5280 5292 5299 5301 5300 5301
5328 5318 5308 5298 5289 5283 5278 5271 5266 5263 5259 5256 5253 5245 5232 5225 5222 5220 5215 5211 5209 5207 5205 5203 5204 5208 5213 5220 5226 5231 5234 5239 5245 5249 5257 5265 5274 5283 5289 5293 5297 5302 5303
5313 5301 5292 5285 5278 5273 5267 5261 5256 5252 5248 5243 5237 5229 5223 5220 5216 5213 5210 5207 5206 5204 5203 5204 5207 5213 5219 5224 5229 5234 5239 5244 5250 5255 5262 5269 5279 5282 5285 5289 5293 5297 5299
5298 5287 5279 5272 5266 5262 5257 5251 5245 5241 5234 5228 5222 5213 5209 5208 5206 5204 5204 5203 5203 5203 5203 5206 5212 5218 5224 5229 5233 5238 5244 5251 5257 5262 5268 5274 5281 5284 5287 5290 5293 5296 5299
5283 5275 5268 5262 5257 5252 5245 5241 5233 5226 5220 5212 5208 5203 5201 5200 5198 5198 5198 5200 5201 5202 5205 5211 5218 5223 5228 5233 5239 5245 5252 5258 5264 5269 5275 5281 5283 5286 5287 5288 5290 5292 5294
5272 5265 5259 5253 5247 5243 5236 5229 5222 5213 5207 5200 5196 5196 5196 5195 5194 5194 5196 5199 5202 5205 5211 5217 5223 5230 5235 5240 5246 5252 5259 5265 5271 5276 5281 5282 5283 5285 5284 5285 5286 5288 5291
5262 5255 5249 5244 5237 5233 5225 5217 5209 5200 5194 5191 5190 5190 5190 5190 5192 5194 5196 5200 5204 5211 5218 5223 5229 5235 5243 5250 5256 5262 5269 5275 5280 5280 5278 5279 5280 5280 5281 5282 5283 5282 5284
5252 5246 5239 5232 5226 5219 5212 5203 5195 5190 5187 5185 5186 5187 5188 5188 5190 5194 5198 5203 5209 5217 5223 5229 5236 5245 5252 5260 5266 5274 5281 5287 5285 5281 5279 5278 5278 5279 5280 5281 5281 5284 5285
5242 5234 5227 5220 5212 5205 5197 5190 5185 5183 5183 5184 5184 5184 5184 5187 5193 5197 5202 5207 5214 5221 5228 5237 5246 5254 5262 5270 5277 5284 5289 5288 5286 5286 5284 5285 5285 5287 5287 5287 5290 5292 5291